Effective Sunday, March 17, 2024, the National Weather Service National Data Buoy Center will discontinue its Dial-A-Buoy Interactive Voice Response system. For more information, see Service Change Notice 24-06 (PDF).

Station ANVC1 - 9416841 - Arena Cove, CA Image indicating link to RSS feed of recent meteorological observations for station ANVC1


Conditions at ANVC1 as of
(2:48 am PST)
1048 GMT on 02/26/2024:
     

Click on the graph icon in the table below to see a time series plot of the last five days of that observation.

5-day plot - Wind Direction Wind Direction (WDIR):ESE ( 110 deg true )
5-day plot - Wind Speed Wind Speed (WSPD): 4.1 kts
5-day plot - Wind Gust Wind Gust (GST): 5.1 kts
5-day plot - Atmospheric Pressure Atmospheric Pressure (PRES):30.02 in
5-day plot - Air Temperature Air Temperature (ATMP): 51.8 °F
5-day plot - Water Temperature Water Temperature (WTMP): 56.1 °F
5-day plot - Wind Chill Wind Chill (CHILL): 50.5 °F
5-day plot - Wind Speed at 10 Meters Wind Speed at 10 meters (WSPD10M): 3.9 kts
5-day plot - Wind Speed at 20 Meters Wind Speed at 20 meters (WSPD20M): 5.8 kts
5-day plot -  Wind Speed, Wind Gust and Atmospheric Pressure Combined plot of Wind Speed, Gust, and Air Pressure
NOS Water Level Observation Network Water Level
Previous observations
TIME
(PST)
5-day plot - Wind Direction
WDIR
 
5-day plot - Wind Speed
WSPD
kts
5-day plot - Wind Gust
GST
kts
5-day plot - Wave Height
WVHT
ft
5-day plot - Dominant Wave Period
DPD
sec
5-day plot - Average Wave Period
APD
sec
5-day plot - Mean Wave Direction
MWD
 
5-day plot - Atmospheric Pressure
PRES
in
5-day plot - Pressure Tendency
PTDY
in
5-day plot - Air Temperature
ATMP
°F
5-day plot - Water Temperature
WTMP
°F
5-day plot - Dew Point
DEWP
°F
5-day plot - Salinity
SAL
psu
5-day plot - Visibility
VIS
nmi
5-day plot - Tide (above MLLW)
TIDE
ft
2024-02-26 02:42 amESE 4.1 4.1----30.03- 51.8 56.1----
2024-02-26 02:36 amESE 4.1 5.1----30.03- 51.8 56.1----
2024-02-26 02:30 amESE 5.1 5.1----30.03- 51.8 56.1----
2024-02-26 02:24 amESE 5.1 5.1----30.03- 51.8 56.1----
2024-02-26 02:18 amESE 5.1 6.0----30.04- 51.8 56.1----
2024-02-26 02:12 am E 4.1 5.1----30.04- 52.0 56.1----
2024-02-26 02:06 am E 4.1 5.1----30.04- 51.8 56.1----
2024-02-26 02:00 amESE 4.1 5.1----30.04-0.02 51.8 56.1----
2024-02-26 01:54 amESE 5.1 5.1----30.04- 51.6 56.1----
2024-02-26 01:48 am E 4.1 5.1----30.05- 51.8 56.1----
2024-02-26 01:42 am E 5.1 5.1----30.05- 51.4 56.1----
2024-02-26 01:36 am E 4.1 5.1----30.05- 51.4 56.1----
2024-02-26 01:30 am E 5.1 5.1----30.05- 51.4 56.1----
2024-02-26 01:24 amESE 5.1 6.0----30.05- 51.3 56.1----
2024-02-26 01:18 amESE 5.1 6.0----30.05-- 56.1----
2024-02-26 01:12 am E 5.1 6.0----30.04- 50.9 56.1----
2024-02-26 01:06 am E 5.1 5.1----30.05- 50.7 56.1----
2024-02-26 01:00 am E 5.1 6.0----30.05-0.01 50.4 56.1----
2024-02-26 12:54 am E 6.0 6.0----30.05- 50.2 56.1----
2024-02-26 12:48 am E 5.1 7.0----30.05-- 56.1----
2024-02-26 12:42 amESE 5.1 6.0----30.05- 50.0 56.1----
2024-02-26 12:36 amESE 6.0 7.0----30.05- 49.8 56.1----
2024-02-26 12:30 am E 6.0 7.0----30.05- 49.6 56.1----
2024-02-26 12:24 amESE 7.0 7.0----30.05- 49.5 56.1----
2024-02-26 12:18 amESE 6.0 7.0----30.05- 49.5 56.1----
2024-02-26 12:12 amESE 6.0 7.0----30.05- 49.5 56.1----
2024-02-26 12:06 amESE 6.0 6.0----30.06- 49.1 56.1----
2024-02-26 12:00 amESE 6.0 7.0----30.06+0.00 48.7 56.1----
2024-02-25 11:54 pmESE 7.0 8.0----30.05- 48.7 56.3----
2024-02-25 11:48 pmESE 7.0 8.0----30.06- 48.6 56.3----
2024-02-25 11:42 pmESE 7.0 8.0----30.06- 48.4 56.3----
2024-02-25 11:36 pmESE 6.0 7.0----30.06- 48.4 56.3----
2024-02-25 11:30 pmESE 7.0 8.0----30.06- 48.6 56.3----
2024-02-25 11:24 pmESE 7.0 8.0----30.06- 48.6 56.3----
2024-02-25 11:18 pmESE 6.0 7.0----30.06- 48.7 56.3----
2024-02-25 11:12 pmESE 6.0 7.0----30.06- 49.1 56.3----
2024-02-25 11:06 pmESE 6.0 7.0----30.06- 49.5 56.3----
2024-02-25 11:00 pmESE 6.0 7.0----30.06+0.01 49.5 56.3----
2024-02-25 10:54 pmESE 6.0 6.0----30.06- 49.1 56.3----
2024-02-25 10:48 pmESE 6.0 7.0----30.06-- 56.3----
2024-02-25 10:42 pm E 7.0 8.0----30.06- 48.7 56.3----
2024-02-25 10:36 pmESE 7.0 8.0----30.06- 48.9 56.3----
2024-02-25 10:30 pmESE 6.0 7.0----30.06- 49.1 56.3----
2024-02-25 10:24 pmESE 6.0 7.0----30.06- 48.9 56.3----
2024-02-25 10:18 pmESE 6.0 7.0----30.06-- 56.3----
2024-02-25 10:12 pmESE 7.0 8.0----30.06- 48.6 56.3----
2024-02-25 10:06 pmESE 6.0 7.0----30.06- 48.6 56.3----
2024-02-25 10:00 pmESE 7.0 7.0----30.06+0.02 48.9 56.3----
2024-02-25 09:54 pmESE 6.0 7.0----30.06- 48.7 56.3----
2024-02-25 09:48 pmESE 5.1 7.0----30.06-------
2024-02-25 09:42 pmESE 6.0 7.0----30.06- 48.9 56.3----
2024-02-25 09:36 pmESE 6.0 7.0----30.06- 48.9 56.3----
2024-02-25 09:30 pmESE 6.0 7.0----30.06- 49.5 56.3----
2024-02-25 09:24 pmESE 6.0 6.0----30.06- 49.3 56.3----
2024-02-25 09:18 pmESE 6.0 6.0----30.06- 50.2 56.3----
2024-02-25 09:12 pmESE 5.1 6.0----30.06- 50.4 56.3----
2024-02-25 09:06 pmESE 5.1 6.0----30.05- 50.2 56.3----
2024-02-25 09:00 pmESE 5.1 5.1----30.05+0.02 50.4 56.3----
2024-02-25 08:54 pmESE 5.1 5.1----30.05- 50.4 56.3----
2024-02-25 08:48 pmESE 5.1 6.0----30.05- 50.4 56.5----
2024-02-25 08:42 pmESE 6.0 6.0----30.05- 50.2 56.3----
2024-02-25 08:36 pm E 5.1 6.0----30.05- 50.5 56.3----
2024-02-25 08:30 pmESE 5.1 6.0----30.05- 50.9 56.5----
2024-02-25 08:24 pmESE 5.1 6.0----30.05- 51.1 56.5----
2024-02-25 08:18 pmESE 5.1 5.1----30.05- 51.3 56.5----
2024-02-25 08:12 pmESE 5.1 5.1----30.05- 51.6 56.5----
2024-02-25 08:06 pmESE 5.1 5.1----30.05- 51.6 56.5----
2024-02-25 08:00 pmESE 5.1 5.1----30.05+0.02 51.1 56.5----
2024-02-25 07:54 pmESE 4.1 5.1----30.05- 51.6 56.5----
2024-02-25 07:48 pmESE 4.1 5.1----30.05-- 56.5----
2024-02-25 07:42 pm E 5.1 6.0----30.05- 52.0 56.5----
2024-02-25 07:36 pmESE 5.1 6.0----30.04- 52.0 56.5----
2024-02-25 07:30 pmESE 5.1 6.0----30.04- 52.3 56.5----
2024-02-25 07:24 pm E 4.1 5.1----30.04- 52.7 56.5----
2024-02-25 07:18 pmESE 5.1 5.1----30.04- 52.3 56.5----
2024-02-25 07:12 pmESE 5.1 6.0----30.04- 53.1 56.5----
2024-02-25 07:06 pm E 4.1 5.1----30.04- 53.4 56.5----
2024-02-25 07:00 pmESE 4.1 4.1----30.04- 53.8 56.5----
2024-02-25 06:54 pm E 1.9 4.1----30.04- 54.1 56.5----
2024-02-25 06:48 pmESE 1.9 4.1----30.04- 54.5-----
2024-02-25 06:42 pm S 1.9 2.9----30.04- 54.7-----
2024-02-25 06:36 pm- 0.0 2.9----30.04- 55.0-----
2024-02-25 06:30 pmNNW 1.0 4.1----30.04- 55.2 56.7----
2024-02-25 06:24 pmESE 1.9 5.1----30.03- 55.0 56.7----
2024-02-25 06:18 pmSSE 1.9 4.1----30.03-- 56.7----
2024-02-25 06:12 pmSSW 4.1 7.0----30.03- 55.8 56.7----
2024-02-25 06:06 pm SW 1.0 4.1----30.03- 55.8 56.7----
2024-02-25 06:00 pmSSE 1.9 4.1----30.03+0.00 55.6 56.7----
2024-02-25 05:54 pm S 1.9 5.1----30.03- 55.8 56.7----
2024-02-25 05:48 pmSSW 5.1 6.0----30.03-- 56.7----
2024-02-25 05:42 pm SW 1.9 6.0----30.03- 55.9 56.7----
2024-02-25 05:36 pmSSW 4.1 6.0----30.03- 55.9 56.7----
2024-02-25 05:30 pmSSW 4.1 7.0----30.03- 55.9 56.7----
2024-02-25 05:24 pmSSW 5.1 7.0----30.03- 55.9 56.7----
2024-02-25 05:18 pmSSW 5.1 8.0----30.03- 56.3 56.7----
2024-02-25 05:12 pmSSW 7.0 8.9----30.03- 56.3 56.7----
2024-02-25 05:06 pmSSW 6.0 9.9----30.03- 56.1 56.7----
2024-02-25 05:00 pmSSW 7.0 8.9----30.03+0.02- 56.7----
2024-02-25 04:54 pmSSW 5.1 8.9----30.03-- 56.7----
2024-02-25 04:48 pmSSW 5.1 9.9----30.03- 56.5 56.7----
2024-02-25 04:42 pmSSW 5.1 9.9----30.04- 56.7 56.7----
2024-02-25 04:36 pmSSW 8.0 9.9----30.04- 56.3 56.7----
2024-02-25 04:30 pm SW 2.9 8.0----30.04- 57.2 56.8----
2024-02-25 04:24 pmSSW 5.1 11.1----30.04- 56.5 56.7----
2024-02-25 04:18 pmSSW 7.0 11.1----30.03-- 56.7----
2024-02-25 04:12 pmSSW 7.0 12.0----30.03-- 56.7----
2024-02-25 04:06 pmSSW 7.0 14.0----30.03-- 56.7----
2024-02-25 04:00 pmSSW 7.0 12.0------- 56.7----
2024-02-25 03:54 pmSSW 8.0 13.0------- 56.7----
2024-02-25 03:48 pmSSW 8.9 14.0----30.03- 56.7 56.7----
2024-02-25 03:42 pmSSW 9.9 13.0----30.04- 56.3 56.7----
2024-02-25 03:36 pmSSW 9.9 14.0----30.04- 56.5 56.7----
2024-02-25 03:30 pmSSW 8.0 15.0----30.03- 56.5 56.7----
2024-02-25 03:24 pmSSW 12.0 15.0----30.03- 56.3 56.7----
2024-02-25 03:18 pmSSW 6.0 15.0----30.03- 56.8 56.7----
2024-02-25 03:12 pm S 8.0 14.0----30.03- 56.7 56.7----
2024-02-25 03:00 pmSSW 9.9 13.0----30.03- 57.0 56.7----
2024-02-25 02:54 pmSSW 8.9 13.0----30.03- 57.0 56.7----
2024-02-25 02:48 pmSSW 9.9 15.9----30.03- 56.8 56.5----
2024-02-25 02:42 pmSSW 8.9 14.0----30.03- 56.7 56.5----
2024-02-25 02:36 pmSSW 9.9 14.0----30.03- 56.8 56.5----
2024-02-25 02:30 pmSSW 9.9 14.0----30.03- 56.8 56.5----
2024-02-25 02:24 pmSSW 4.1 8.0----30.01- 57.6 56.5----
2024-02-25 02:18 pmSSE 2.9 11.1----30.01- 57.4 56.5----
2024-02-25 02:12 pmSSW 6.0 9.9----30.01- 57.2 56.5----
2024-02-25 02:06 pmSSW 4.1 8.9----30.01- 57.2 56.5----
2024-02-25 02:00 pmSSW 4.1 7.0----30.01-0.06 57.2 56.5----
2024-02-25 01:54 pmSSW 7.0 9.9----30.02- 57.2 56.8----
2024-02-25 01:48 pmSSW 2.9 8.0----30.02-- 56.8----
2024-02-25 01:42 pm W 2.9 6.0----30.02-- 56.1----
2024-02-25 01:36 pm NE 1.0 6.0----30.02-- 55.9----
2024-02-25 01:30 pm-------30.02-- 55.9----
2024-02-25 01:24 pm-------30.02-- 55.9----
2024-02-25 01:18 pm SE 4.1 11.1----30.02- 58.5 55.9----
2024-02-25 01:12 pm E 5.1 9.9----30.03- 58.3 55.9----
2024-02-25 01:06 pmESE 4.1 8.9----30.03- 58.3 55.9----
2024-02-25 01:00 pmESE 5.1 11.1----30.04-0.02- 55.9----
2024-02-25 12:54 pmESE 6.0 9.9----30.04-- 55.9----
2024-02-25 12:48 pm SE 5.1 11.1----30.04- 58.3 55.8----
2024-02-25 12:42 pmESE 6.0 8.9----30.05- 58.3 55.8----
2024-02-25 12:36 pmESE 1.0 6.0----30.05- 58.3 55.9----
2024-02-25 12:30 pmESE 5.1 8.0----30.06- 58.6 55.9----
2024-02-25 12:24 pmESE 5.1 11.1----30.06- 58.8 56.1----
2024-02-25 12:18 pmESE 7.0 12.0----30.06-- 55.8----
2024-02-25 12:12 pmESE 8.0 11.1----30.06-- 55.8----
2024-02-25 12:06 pmESE 7.0 9.9----30.06-- 55.8----
2024-02-25 12:00 pmESE 6.0 8.9------- 55.8----
2024-02-25 11:54 am E 2.9 8.0------- 56.5----
2024-02-25 11:48 am E 2.9 6.0----30.07-- 55.8----
2024-02-25 11:42 amSSE 1.9 6.0----30.07- 57.6 55.8----
2024-02-25 11:36 am SW 1.0 7.0----30.07- 57.4 55.8----
2024-02-25 11:30 amSSW 4.1 9.9----30.07- 57.0 55.8----
2024-02-25 11:24 amWSW 1.9 6.0----30.08- 57.0 55.8----
2024-02-25 11:18 am N 1.9 6.0----30.08- 56.8 55.8----
2024-02-25 11:12 amWSW 1.9 7.0----30.08- 56.8 55.8----
2024-02-25 11:06 am E 4.1 8.0----30.08- 56.8 55.8----
2024-02-25 11:00 amSSW 2.9 8.9----30.08+0.05 56.7 55.9----
2024-02-25 10:54 am SW 4.1 7.0----30.07- 56.8 55.9----
2024-02-25 10:48 amSSW 2.9 7.0----30.07- 56.8 55.9----
2024-02-25 10:42 am NW 2.9 8.0----30.07- 57.0 55.8----
2024-02-25 10:36 amWSW 2.9 6.0----30.06- 57.2 55.8----
2024-02-25 10:30 amNNE 2.9 8.0----30.06-- 55.8----
2024-02-25 10:24 am E 2.9 11.1----30.06-- 55.9----
2024-02-25 10:18 amNNE 2.9 7.0----30.06- 57.4 55.9----
2024-02-25 10:12 amESE 2.9 9.9----30.06- 57.6 55.8----
2024-02-25 10:06 amESE 1.9 8.9----30.06- 57.7 55.8----
2024-02-25 10:00 am E 5.1 8.9----30.06+0.04 57.7 55.8----
2024-02-25 09:54 amESE 6.0 11.1----30.05- 57.7 55.8----
2024-02-25 09:48 amESE 6.0 11.1----30.05- 57.9 55.8----
2024-02-25 09:42 am E 6.0 11.1----30.05- 57.7 55.8----
2024-02-25 09:36 amESE 7.0 12.0----30.05- 57.9 55.8----
2024-02-25 09:30 am E 5.1 8.0----30.05- 58.1 55.8----
2024-02-25 09:24 amESE 1.9 6.0----30.05- 58.3 55.8----
2024-02-25 09:18 am E 4.1 8.0----30.05- 57.7 55.8----
2024-02-25 09:12 am NE 1.0 4.1----30.05- 57.9 55.8----
2024-02-25 09:06 amENE 1.9 4.1----30.05- 58.3 56.5----
2024-02-25 09:00 am S 1.0 4.1----30.05+0.04 58.5 55.9----
2024-02-25 08:54 am S 1.0 5.1----30.05- 58.5 55.8----
2024-02-25 08:48 am E 2.9 7.0----30.04- 58.3 55.8----
2024-02-25 08:42 am E 5.1 7.0----30.04- 58.1 55.8----
2024-02-25 08:36 am E 4.1 6.0----30.04- 58.1 55.8----
2024-02-25 08:30 am E 5.1 8.0----30.04- 57.9 55.8----
2024-02-25 08:24 am E 2.9 7.0----30.04- 57.9 55.9----
2024-02-25 08:18 am E 2.9 5.1----30.03-- 56.1----
2024-02-25 08:12 am E 1.9 7.0----30.03-- 55.8----
2024-02-25 08:06 am E 2.9 6.0----30.03-- 55.8----
2024-02-25 08:00 am E 4.1 7.0----30.03+0.03- 55.8----
2024-02-25 07:54 am E 5.1 7.0----30.03-- 55.8----
2024-02-25 07:48 am E 5.1 9.9----30.03- 57.6 55.8----
2024-02-25 07:42 am E 6.0 11.1----30.02- 57.4 55.8----
2024-02-25 07:36 am E 6.0 11.1----30.02- 57.4 55.8----
2024-02-25 07:30 amESE 4.1 11.1------ 57.4 55.8----
2024-02-25 07:24 am E 6.0 9.9------ 57.4 55.8----
2024-02-25 07:18 am E 6.0 8.9----30.01-- 55.8----
2024-02-25 07:12 am E 6.0 8.0----30.01-- 55.8----
2024-02-25 07:06 am E 4.1 8.9----30.01-- 55.8----
2024-02-25 07:00 am E 4.1 7.0----30.01+0.02- 55.8----
2024-02-25 06:54 am E 5.1 8.0----30.01-- 55.8----
2024-02-25 06:48 am-------30.01- 56.3 55.8----
2024-02-25 06:42 am-------30.01- 55.8 55.8----
2024-02-25 06:36 am-------30.01- 55.8 55.8----
2024-02-25 06:30 am- 0.0 5.1------ 55.9 55.8----
2024-02-25 06:24 am E 2.9 5.1------ 56.1 55.8----
2024-02-25 06:18 am E 2.9 6.0----30.01-- 55.8----
2024-02-25 06:12 am E 2.9 6.0----30.01-- 55.8----
2024-02-25 06:06 amESE 2.9 5.1----30.01-- 55.8----
2024-02-25 06:00 amESE 4.1 5.1----30.01-- 55.8----
2024-02-25 05:54 am E 4.1 6.0----30.01-- 55.8----
2024-02-25 05:48 am E 5.1 6.0----30.01- 52.0-----
2024-02-25 05:42 amESE 5.1 6.0----30.01- 52.7-----
2024-02-25 05:36 am E 5.1 6.0----30.00- 53.8-----
2024-02-25 05:30 am E 4.1 5.1----30.00- 54.5 55.8----
2024-02-25 05:24 am E 2.9 4.1----30.00- 55.8 55.8----
2024-02-25 05:18 am E 2.9 5.1----30.00- 54.5 55.8----
2024-02-25 05:12 am E 4.1 5.1----30.00- 55.2 55.9----
2024-02-25 05:06 am E 4.1 6.0----30.00- 55.0 55.9----
2024-02-25 05:00 am E 2.9 5.1----30.00-0.01- 55.9----
2024-02-25 04:54 am E 4.1 5.1----30.00-- 55.9----
2024-02-25 04:48 amESE 4.1 6.0----30.00-- 55.9----
2024-02-25 04:42 am E 5.1 7.0----30.00- 51.4 55.8----
2024-02-25 04:36 am E 5.1 7.0----29.99- 52.0 55.8----
2024-02-25 04:30 amESE 7.0 8.0----29.99- 50.0 55.8----
2024-02-25 04:24 am E 7.0 8.0----29.99- 50.4 55.9----
2024-02-25 04:18 am-------29.99- 50.0 55.9----
2024-02-25 04:12 am-------29.99- 49.8 55.9----
2024-02-25 04:06 am-------29.99- 50.0 55.9----
2024-02-25 04:00 am E 8.0 8.9----29.99-0.02 50.2 55.9----
2024-02-25 03:54 amESE 8.0 8.9----29.99- 50.4 55.9----
2024-02-25 03:48 amESE 8.0 8.9----29.99- 51.3 55.9----
2024-02-25 03:42 am E 8.0 8.9----30.00- 50.0 55.9----
2024-02-25 03:36 am E 8.0 8.0----30.00- 50.4 55.9----
2024-02-25 03:30 am E 7.0 8.9----29.99-- 55.9----
2024-02-25 03:24 am E 8.0 8.9----30.00-- 55.9----
2024-02-25 03:18 amESE 8.0 8.9------------
2024-02-25 03:12 amESE 8.0 8.9------------
2024-02-25 03:06 am E 8.0 8.9------------
2024-02-25 03:00 amESE 8.0 8.9------------
2024-02-25 02:54 am E 8.0 8.0------------